Weather History for KLRF - June, 2013

Change the Weather History Date:

Wednesday, June 12, 2013

  Actual Average Record
Temperature  
Mean Temperature 85 °F -  
Max Temperature 95 °F 87 °F 100 °F (1998)
Min Temperature 75 °F 64 °F 49 °F (1988)
Cooling Degree Days 20    
Growing Degree Days 35 (Base 50)    
Moisture  
Dew Point 72 °F    
Average Humidity 64    
Maximum Humidity 85    
Minimum Humidity 43    
Precipitation  
Precipitation 0.00 in - - ()
Sea Level Pressure  
Sea Level Pressure 29.99 in    
Wind  
Wind Speed 9 mph (SW)    
Max Wind Speed 17 mph    
Max Gust Speed 25 mph    
Visibility 10 miles    
Events      
Averages and records for this station are not official NWS values.
T = Trace of Precipitation, MM = Missing Value Source: NWS Daily Summary

Daily Weather History Graph

Daily Weather History Graph

Search for Another Location

Airport or City:

Trip Planner

Search our weather history database for the weather conditions in past years. The results will help you decide how hot, cold, wet, or windy it might be!

Date:

Astronomy

Jun. 12, 2013 Rise Set
Actual Time 5:54 AM CDT 8:22 PM CDT
Civil Twilight 5:24 AM CDT 8:52 PM CDT
Nautical Twilight 4:48 AM CDT 9:29 PM CDT
Astronomical Twilight 4:07 AM CDT 10:09 PM CDT
Moon 9:27 AM CDT (6/12) 11:06 PM CDT (6/12)
Length of Visible Light 15h 27m
Length of Day
14h 28m
Waxing Crescent, 14% of the Moon is Illuminated
Jun 12
Waxing Crescent
Jun 16
First Quarter
Jun 23
Full
Jun 29
Last Quarter
Jul 8
New

Hourly Weather History & Observations

Time (CDT) Temp. Heat Index Dew Point Humidity Pressure Visibility Wind Dir Wind Speed Gust Speed Precip Events Conditions
12:58 AM 79.5 °F - 72.5 °F 79% 29.99 in 10.0 mi South 4.6 mph - N/A   Clear
1:58 AM 78.8 °F - 72.3 °F 80% 29.98 in 10.0 mi SSW 5.8 mph - N/A   Clear
2:58 AM 77.4 °F - 71.8 °F 83% 29.98 in 10.0 mi SW 4.6 mph - N/A   Clear
3:58 AM 78.1 °F - 71.8 °F 81% 29.97 in 10.0 mi SSW 6.9 mph - N/A   Clear
4:58 AM 75.7 °F - 71.1 °F 85% 29.98 in 10.0 mi West 3.5 mph - N/A   Clear
5:58 AM 78.4 °F - 72.0 °F 80% 30.00 in 10.0 mi SW 8.1 mph - N/A   Clear
6:58 AM 77.9 °F - 72.3 °F 83% 30.03 in 10.0 mi WSW 3.5 mph - N/A   Clear
7:58 AM 81.5 °F 86.3 °F 72.5 °F 74% 30.04 in 10.0 mi SW 8.1 mph - N/A   Clear
8:58 AM 84.6 °F 91.4 °F 73.2 °F 69% 30.05 in 10.0 mi SW 15.0 mph - N/A   Clear
9:58 AM 87.4 °F 95.8 °F 73.8 °F 64% 30.04 in 10.0 mi WSW 11.5 mph - N/A   Clear
10:58 AM 89.1 °F 97.5 °F 73.4 °F 60% 30.05 in 10.0 mi WSW 13.8 mph - N/A   Clear
11:58 AM 91.4 °F 97.8 °F 71.2 °F 51% 30.04 in 10.0 mi SW 15.0 mph 23.0 mph N/A   Clear
12:58 PM 91.9 °F 100.1 °F 72.3 °F 53% 30.03 in 10.0 mi SW 13.8 mph 20.7 mph N/A   Clear
1:35 PM 91.4 °F 98.4 °F 71.6 °F 52% 30.01 in 10.0 mi SSW 12.7 mph - N/A   Partly Cloudy
1:58 PM 93.4 °F 100.9 °F 71.6 °F 49% 30.01 in 10.0 mi SW 16.1 mph - N/A   Partly Cloudy
2:58 PM 94.3 °F 100.4 °F 69.8 °F 45% 29.99 in 10.0 mi WSW 13.8 mph - N/A   Clear
3:58 PM 95.2 °F 101.7 °F 70.0 °F 44% 29.97 in 10.0 mi SW 16.1 mph 25.3 mph N/A   Clear
4:58 PM 94.6 °F 100.0 °F 68.9 °F 43% 29.94 in 10.0 mi SSW 17.3 mph - N/A   Clear
5:58 PM 93.4 °F 98.6 °F 69.4 °F 45% 29.93 in 10.0 mi SSW 15.0 mph 21.9 mph N/A   Clear
6:58 PM 91.6 °F 95.7 °F 68.4 °F 46% 29.93 in 10.0 mi South 16.1 mph 21.9 mph N/A   Clear
7:58 PM 88.9 °F 94.7 °F 70.7 °F 55% 29.94 in 10.0 mi SW 11.5 mph - N/A   Clear
8:58 PM 86.4 °F 92.6 °F 71.8 °F 62% 29.94 in 10.0 mi SSW 10.4 mph - N/A   Clear
9:58 PM 84.4 °F 90.0 °F 72.0 °F 66% 29.95 in 10.0 mi South 8.1 mph - N/A   Clear
10:58 PM 82.9 °F 88.5 °F 72.5 °F 71% 29.96 in 10.0 mi SSW 6.9 mph - N/A   Clear
11:58 PM 82.2 °F 87.6 °F 72.7 °F 73% 29.96 in 10.0 mi SSW 8.1 mph - N/A   Clear